Regional Weather Roundup
Issued by NWS Nashville, TN

Home | Current Version | Previous Version | Text Only | Print | Product List | Glossary On
Versions: 1 2 3 4 5 6 7 8 9 10 11 12 13 14 15 16 17 18 19 20 21 22 23 24 25 26 27
000
ASUS44 KOHX 221210
RWROHX
MIDDLE TENNESSEE HOURLY WEATHER ROUNDUP
NATIONAL WEATHER SERVICE NASHVILLE TN
600 AM CST SUN JAN 22 2017

NOTE: "FAIR" INDICATES FEW OR NO CLOUDS BELOW 12,000 FEET WITH
NO SIGNIFICANT WEATHER AND/OR OBSTRUCTIONS TO VISIBILITY.

* THESE REPORTS ARE NOT UNDER NWS QUALITY CONTROL AND MAY NOT
  REPORT WEATHER SUCH AS PRECIPITATION AND FOG.


TNZ005>011-023>034-057-059-062>066-078-080-221300
...NORTHERN MIDDLE TENNESSEE...

CITY           SKY/WX    TMP DP  RH WIND       PRES   REMARKS
CLARKSVILLE    CLOUDY    53  48  83 CALM      29.48R
CROSSVILLE     RAIN      52  50  93 SE6       29.50S
GALLATIN       CLOUDY    55  52  88 NE5       29.50S
DICKSON        CLOUDY    51  50  97 N3        29.46R
NASHVILLE      CLOUDY    53  49  86 N8        29.46F
PORTLAND       CLOUDY    55  52  88 SE3       29.48S
SMYRNA         LGT RAIN  55  53  93 SE6       29.47S
SPRINGFIELD    CLOUDY    54  52  94 VRB3      29.47R
WEST NASHVILLE CLEAR     52  50  93 NE6       29.46S
$$
TNZ056-058-060-061-075>077-079-093>097-221300
...SOUTHERN MIDDLE TENNESSEE...

CITY           SKY/WX    TMP DP  RH WIND       PRES   REMARKS
COLUMBIA       CLOUDY   N/A N/A N/A S8        29.42S
MCMINNVILLE    CLOUDY    54  54 100 CALM      29.46F
MURFREESBORO   CLOUDY    54  52  93 E3        29.45F
SHELBYVILLE    CLOUDY    55  55 100 SW3       29.45F
TULLAHOMA      PTCLDY    54  52  94 CALM      29.46R
WINCHESTER     MOCLDY    54  54 100 CALM      29.48R
$$


...KEY TO REMARKS...
VSB - VISIBILITY IN MILES
WCI - WIND CHILL INDEX
HX  - HEAT INDEX





USA.gov is the U.S. government's official web portal to all federal, state and local government web resources and services.